Location: Saluda
(35.2377°N, 82.3468°W)
Time: 12:41:20
(UTC+00:00)

SR - All Passes

Search period start: 05 October 2022 00:00
Search period end: 15 October 2022 00:00
Orbit: 574 x 879 km, 66.7° (Epoch: 04 October)

Date Brightness Start Highest point End Pass type
(mag) Time Alt. Az. Time Alt. Az. Time Alt. Az.
05 Oct - 01:35:20 10° SSW 01:41:11 79° WNW 01:47:07 10° NNE visible
05 Oct - 03:21:24 10° WNW 03:24:10 13° NW 03:26:56 10° NNW visible
05 Oct - 10:20:36 10° N 10:25:28 37° NE 10:29:55 10° ESE visible
05 Oct - 12:03:18 10° NW 12:07:10 22° WSW 12:10:48 10° SSW daylight
06 Oct - 00:45:24 10° S 00:51:02 52° ESE 00:56:46 10° NE visible
06 Oct - 02:28:42 10° WSW 02:33:24 24° NW 02:38:07 10° N visible
06 Oct - 09:31:10 10° N 09:34:51 19° NE 09:38:21 10° E visible
06 Oct - 11:12:17 10° NW 11:17:17 50° WSW 11:21:49 10° S daylight
06 Oct - 23:56:23 10° SSE 00:01:04 26° ESE 00:05:49 10° NE visible
07 Oct - 01:37:17 10° SW 01:42:52 44° WNW 01:48:30 10° NNE visible
07 Oct - 10:21:56 10° NNW 10:27:09 72° ENE 10:31:52 10° SSE visible
07 Oct - 12:07:49 10° W 12:08:17 10° W 12:08:44 10° WSW daylight
07 Oct - 23:09:18 10° ESE 23:11:16 12° ESE 23:13:15 10° E daylight
08 Oct - 00:46:40 10° SSW 00:52:32 86° WNW 00:58:29 10° NNE visible
08 Oct - 02:32:17 10° WNW 02:35:25 14° NW 02:38:33 10° NNW visible
08 Oct - 09:32:02 10° N 09:36:46 33° NE 09:41:06 10° ESE visible
08 Oct - 11:14:29 10° NW 11:18:33 24° WSW 11:22:20 10° SSW daylight
08 Oct - 23:56:50 10° S 00:02:24 47° ESE 00:08:03 10° NE visible
09 Oct - 01:39:49 10° WSW 01:44:42 26° NW 01:49:34 10° N visible
09 Oct - 08:42:42 10° N 08:46:07 17° NE 08:49:21 10° E visible
09 Oct - 10:23:35 10° NW 10:28:37 57° WSW 10:33:12 10° S visible
09 Oct - 23:07:58 10° SSE 23:12:28 23° ESE 23:17:00 10° NE daylight
10 Oct - 00:48:31 10° SW 00:54:10 49° WNW 00:59:53 10° NNE visible
10 Oct - 09:33:17 10° NNW 09:38:28 64° ENE 09:43:07 10° SE visible
10 Oct - 11:18:04 10° W 11:19:39 11° WSW 11:21:14 10° WSW daylight
10 Oct - 22:21:49 10° ESE 22:22:41 10° E 22:23:33 10° E daylight
10 Oct - 23:58:00 10° SSW 00:03:52 86° ESE 00:09:49 10° NNE visible
11 Oct - 01:43:13 10° W 01:46:40 16° NW 01:50:07 10° N visible
11 Oct - 08:43:28 10° N 08:48:02 30° NE 08:52:14 10° ESE visible
11 Oct - 10:25:41 10° NW 10:29:54 27° WSW 10:33:50 10° SSW visible
11 Oct - 23:08:17 10° S 23:13:46 43° ESE 23:19:18 10° NE daylight
12 Oct - 00:50:57 10° WSW 00:55:58 28° NW 01:00:59 10° N visible
12 Oct - 07:54:15 10° N 07:57:20 16° NE 08:00:16 10° E visible
12 Oct - 09:34:53 10° NNW 09:39:57 64° WSW 09:44:32 10° SSE visible
12 Oct - 22:19:34 10° SSE 22:23:50 21° ESE 22:28:07 10° ENE daylight
12 Oct - 23:59:45 10° SW 00:05:29 53° WNW 00:11:15 10° NNE visible
13 Oct - 08:44:39 10° NNW 08:49:44 57° ENE 08:54:21 10° SE visible
13 Oct - 10:28:50 10° WNW 10:31:01 13° WSW 10:33:09 10° SW visible
13 Oct - 23:09:20 10° SSW 23:15:12 79° ESE 23:21:07 10° NNE visible
14 Oct - 00:54:09 10° W 00:57:54 17° NW 01:01:38 10° N visible
14 Oct - 07:54:53 10° N 07:59:16 27° NE 08:03:19 10° ESE night (unlit)
14 Oct - 09:36:52 10° NW 09:41:14 30° WSW 09:45:16 10° S visible
14 Oct - 22:19:43 10° S 22:25:06 39° ESE 22:30:32 10° NE daylight
